Location: *
(45.1961°N, 1.9694°E)
Time: 08:34:35
(UTC+00:00)

SL-27 R/B - Pass Details

Date: 25 August 2019
Orbit: 420 x 473 km, 74.7° (Epoch: 24 September)

Event Time Altitude Azimuth Distance (km) Brightness Sun altitude
Exits shadow 21:41:10 26° 4° (N) 965 4.5 -26.6°
Drops below altitude 10° 21:42:55 10° 13° (NNE) 1,644 5.7 -26.8°
Sets 21:45:04 0° 17° (NNE) 2,529 6.7 -27.1°
